Погода в Верх-Ушнуре

Россия / Республика Марий Эл     56°46′30″N   48°38′44″E
темп.,
°C
ветер,
м/с
пор.,
м/с
влажн.,
%
обл.,
%
осадки,
мм/ч
давл.,
гПа
погр.,
м
11 мая, вт
вт1100:00+11с489898 0.0 1024201
03:00+10ссв489882 0.0 1025216
06:00+11св5795100 0.0 1026260
09:00+14св458535 0.0 1027424
12:00+20св44665 0.0 1027822
15:00+21св33606 0.0 10271068
18:00+19ссв36748 0.0 1027189
21:00+14св49897 0.5 1028153
12 мая, ср
ср1200:00+13всв37927 0.0 1029119
03:00+12всв36934 0.0 1029103
06:00+15всв47865 0.0 1029193
09:00+19всв56695 0.0 1029565
12:00+23вюв45521 0.0 10281393
15:00+24юв354537 0.0 10271881
18:00+22ююв225610 0.0 102628
21:00+17в226559 0.0 102712
13 мая, чт
чт1300:00+17в3768100 0.0 1027131
03:00+15юв3375100 0.0 102738
06:00+17юв357178 0.0 1027159
09:00+21ююв584637 0.0 1027892
12:00+23ююв6741100 0.0 10261410
15:00+24ююв564141 0.0 10251514
18:00+22юв115935 0.0 102431
21:00+17юв4963100 0.0 1023155
14 мая, пт
пт1400:00+16юв4127189 0.0 1023251
03:00+14ююв3880100 0.4 1023146
06:00+16ююв3874100 0.3 1023258
09:00+21ю594699 0.3 1021757
12:00+24ю6847100 0.0 10211126
15:00+24ююз5853100 0.0 10211541
18:00+22ююз366999 0.0 1020166
21:00+18ю2284100 0.0 102020
15 мая, сб
сб1500:00+16ю34875 0.0 102059
03:00+15ю347810 0.0 102070
06:00+17ю3972100 0.0 1020232
09:00+22ююз5850100 0.0 1019496
12:00+26ююз693646 0.0 10191156
15:00+27ююз683972 0.0 10181216
18:00+23ю4955100 0.0 1018216
21:00+17ю412637 0.0 1017207